Regional Weather Roundup
Issued by NWS

Home | Current Version | Previous Version | Text Only | Print | Product List | Glossary On
Versions: 1 2 3 4 5 6 7 8 9 10 11 12 13 14 15 16 17 18 19 20 21 22 23 24 25 26 27 28 29 30 31 32 33 34 35 36 37 38 39 40 41 42 43 44 45 46 47 48 49 50
000
ASUS44 KBMX 211210
RWRAL

ALABAMA REGIONAL WEATHER ROUNDUP
NATIONAL WEATHER SERVICE BIRMINGHAM AL
600 AM CST SAT JAN 21 2017

NOTE: "FAIR" INDICATES FEW OR NO CLOUDS BELOW 12,000 FEET
WITH NO SIGNIFICANT WEATHER AND/OR OBSTRUCTIONS TO VISIBILITY.

THE REMARK "TC" DENOTES TEMPERATURE IN DEGREES CELSIUS.

ALZ001>011-014-016>018-020-211300-
NORTH ALABAMA

CITY           SKY/WX    TMP DP  RH WIND       PRES   REMARKS
MUSCLE SHOALS  CLOUDY    57  54  89 CALM      29.76R
6HR MIN TEMP:  53; 6HR MAX TEMP:  59;

HUNTSVILLE     CLOUDY    59  58  96 SE7       29.75F
6HR MIN TEMP:  57; 6HR MAX TEMP:  60;

DECATUR        CLOUDY    60  60 100 E3        29.75S
6HR MIN TEMP:  53; 6HR MAX TEMP:  60;

HALEYVILLE     LGT RAIN  59  58  96 S3        29.79R VSB 1/2
6HR MIN TEMP:  55; 6HR MAX TEMP:  59; 6HR PCP: TRACE;

GADSDEN        CLOUDY    59  58  96 CALM      29.79F FOG
6HR MIN TEMP:  51; 6HR MAX TEMP:  59;

$$

ALZ012-013-022-023-030>036-040>044-211300-
WEST CENTRAL ALABAMA

CITY           SKY/WX    TMP DP  RH WIND       PRES   REMARKS
TUSCALOOSA     TSTM      62  61  96 NE9       29.72F FOG
6HR MIN TEMP:  55; 6HR MAX TEMP:  66; 6HR PCP:  0.15;

$$

ALZ015-024>027-033>036-040>044-211300-
CENTRAL ALABAMA

CITY           SKY/WX    TMP DP  RH WIND       PRES   REMARKS
BIRMINGHAM     HVY RAIN  63  58  83 E8        29.79S
6HR MIN TEMP:  60; 6HR MAX TEMP:  64; 6HR PCP:  0.05;

MONTGOMERY     LGT RAIN  63  59  87 VRB5      29.72S
6HR MIN TEMP:  63; 6HR MAX TEMP:  67; 6HR PCP:  0.60;

SHELBY CO ARPT RAIN      62  62 100 N3        29.72F FOG
6HR MIN TEMP:  56; 6HR MAX TEMP:  63; 6HR PCP:  0.19;

MAXWELL AFB    TSTM      61  61 100 N8        29.71R VSB 1
                                      6HR PCP:  0.79;

GREENVILLE     CLOUDY    68  66  93 S10       29.70F
6HR MIN TEMP:  66; 6HR MAX TEMP:  68; 6HR PCP:  0.25;

$$

ALZ019-021-028-029-037-038-045>048-211300-
EAST CENTRAL ALABAMA

CITY           SKY/WX    TMP DP  RH WIND       PRES   REMARKS
ANNISTON       LGT RAIN  62  62 100 CALM      29.80R FOG
6HR MIN TEMP:  55; 6HR MAX TEMP:  62; 6HR PCP: TRACE;

ALEXANDER CITY TSTM      63  62  96 SE3       29.79R
6HR MIN TEMP:  62; 6HR MAX TEMP:  70; 6HR PCP:  1.07;

AUBURN         CLOUDY    64  64 100 SE9       29.76F THUNDER
6HR MIN TEMP:  64; 6HR MAX TEMP:  65; 6HR PCP:  0.28;

$$

ALZ051>064-211300-
SOUTHWEST ALABAMA

CITY           SKY/WX    TMP DP  RH WIND       PRES   REMARKS
MOBILE         CLOUDY    72  68  87 S16G28    29.73R
6HR MIN TEMP:  68; 6HR MAX TEMP:  72; 6HR PCP: TRACE;

BROOKLEY FIELD CLOUDY    71  70  96 S12       29.74R
6HR MIN TEMP:  69; 6HR MAX TEMP:  71; 6HR PCP: TRACE;

EVERGREEN      CLOUDY    70  67  90 S14G24    29.69F
6HR MIN TEMP:  66; 6HR MAX TEMP:  70; 6HR PCP:  0.06;

$$

ALZ049-050-065>069-211300-
SOUTHEAST ALABAMA

CITY           SKY/WX    TMP DP  RH WIND       PRES   REMARKS
DOTHAN         CLOUDY    67  67 100 S14       29.81R
6HR MIN TEMP:  66; 6HR MAX TEMP:  70; 6HR PCP:  0.74;

OZARK          CLOUDY    68  68 100 S13       29.77R
6HR MIN TEMP:  67; 6HR MAX TEMP:  69; 6HR PCP:  0.31;

TROY           CLOUDY    67  67 100 S9        29.75R
6HR MIN TEMP:  65; 6HR MAX TEMP:  67; 6HR PCP:  0.05;

EUFAULA        CLOUDY    68  65  90 S12       29.76R
6HR MIN TEMP:  67; 6HR MAX TEMP:  68; 6HR PCP:  0.11;

$$



USA.gov is the U.S. government's official web portal to all federal, state and local government web resources and services.